Starlink 11566

operational
NORAD ID: 62914 Int'l Des: 2025-027 Owner: SPXS Country: US Constellation: starlink
LEOCIRCULAR

关于 Starlink 11566

正在加载描述...

实时位置

正在加载3D地球...

即将过境

高度历史

Altitude vs Time

uPlot chart will show altitude changes over time

两行轨道根数

1 62914U 25027H 25350.67827405 .00153715 00000-0 11774-2 0 9996
2 62914 43.0028 128.2938 0001482 250.9742 109.0965 15.70880109 50136
Epoch: Dec 16, 2025 • Age: 21 hours

当前状态

高度 360.6 km
速度 7.69 km/s
星下点 -22.73°S, 167.59°E
发射日期 Feb 8, 2025
运行时间 0.8 years
类型 internet

技术详情

分类 Payload
质量 960.00 kg
干质量 910.00 kg
总质量 960.00 kg
长度 0.30 m
直径 4.10 m
跨度 29.00 m
形状 Box + pan
制造商 SPXS
平台类型 Starlink V2MD
阶段状态 In Orbit
所有者/国家 SPXS/US

大型星座

Loading constellations...